DECAYED
Showing default

OUTPOST MISSION 1, 56226 (Decayed)

Orbit data source: Space-Track

OUTPOST MISSION 1, 56226 was a payload satellite owned by Outpost Tech (US) in LEO that was launched on Mon, 12 Jun 2023 UTC via an FALCON 9 launch vehicle from the Air Force Western Test Range (AFWTR). Payload-class satellites include a variety of spacecraft equipped with specific instruments for various scientific and technological missions. These include communications satellites like Starlink; space stations such as the ISS; scientific satellites like the Hubble; Earth observation satellites from companies like Planet Labs, Umbra, and HawkEye 360; GPS; miniature CubeSats for education and research; and military/defense satellites.

Not visible in the next 10 days
Identifier
56226, 2023-084BK
Orbit
Decayed
Country
Flag of USUS
Related business
Manufacturer
Outpost Tech
Mission
Decayed Commercial Technology
Bus & Motor
CUBESAT 3U, Unknown motor
Mass
3 kg wet, 3 kg dry
Launch date (UTC)
2023-06-12 (3 years ago)
Launch vehicle
FALCON 9
Launch site
Air Force Western Test Range (AFWTR)
Object type
Payload
Rocket body
Debris
Shape & HBR
Box, 0.2 m
Radar Cross Section
0.035 m², Medium (>0.1 m² and < 1m²)

Expand to show TLE details & history
Last TLE update: 1 month ago

TLE from 1 month ago
0 OUTPOST MISSION 1
1 56226U 23084BK  26180.13618669  .14309285  27340-5  11766-3 0  9992
2 56226  97.5783 345.9560 0014201 259.1711 100.7996 16.51722429170951
Epoch: 2026-06-29T03:16Z
TLE epoch observation values (Epoch: 2026-06-29T03:16:06.530Z)
Latitude
0.00002°
Longitude
19.70282°
Altitude
139.811 km
Speed
7.821 km/s
True Right ascension
23h 03m 49s
True Declination
0° 00' 00"
Sunlit
Object was in full shadow at epoch
Visualization orbit readout
Latitude
Unknown
Longitude
Unknown
Altitude
Unknown
Speed
Unknown
Apparent Right ascension
Unknown
Apparent Declination
Unknown
Sunlit
N/A
Visualization observer readout
Local Sidereal Time
05:18:15
Azimuth
Unknown
Elevation
Unknown
Doppler factor
Unknown
Orbital elements
Apogee altitude
140.849 km
Perigee altitude
122.36 km
Semi-major axis
6,509.741 km
Eccentricity
0.00142
Inclination
97.5783°
RAAN
345.956°
Arg. of periapsis
259.1711°
True anomaly
100.9594°
Mean anomaly
100.7996°
Eccentric anomaly
100.8795°
Mean motion
4.13235 °/min
Orbital period
87.12 mins
BSTAR
0.00011766
Loading maneuver chart data...
Computing Atmospheric mass density...

Documentation

Showing up to 5 results
|